Location: Étouvelles
(49.5207°N, 3.5808°E)
Time: 00:18:41
(UTC+00:00)

Cosmos 540 Rocket - Pass Details

Date: 01 October 2023
Orbit: 737 x 752 km, 74.1° (Epoch: 03 December)

Event Time Altitude Azimuth Distance (km) Brightness Sun altitude
Rises 21:49:51 0° 328° (NNW) 3,185 7.6 -38.7°
Reaches altitude 10° 21:52:28 10° 317° (NW) 2,259 6.6 -38.9°
Enters shadow 21:54:02 18° 304° (NW) 1,785 5.9 -39.1°
